Terug naar catalogus

SL-16 DEB

ActiefLEO
NORAD 32005·DEBRIS·🇷🇺 Russia

Gelanceerd Jun 10, 2004 vanaf Baikonur Cosmodrome

Loading…

Volgende Passages (komende 24 uur)

TLE

VerouderdSource: Space-Track

Epoch: Sep 7, 2026, 17:18 UTC

1 32005U 04021H   26250.72091712  .00001466  00000-0  10475-2 0  9997
2 32005  71.0851 280.4117 0197349 298.1687  59.9610 13.89998460661012

Volg SL-16 DEB in realtime met AllMySat

Download on the App Store